www.pogodaiklimat.ru

ПОГОДА в Pune

  • Прогноз погоды в Pune
  • Монитор погоды в Pune
  • Климат города

АРХИВ ПОГОДЫ в Pune

Время (UTC), дата Ветер
(напр.,м/с)
 
Видим.   Явления Облачность Т
(С)
Тd
(С)
f
(%)
Тe
(С)
Тes
(С)
Комфортность P
(гПа)
Po
(гПа)
Тmin
(С)
Tmax
(С)
R
(мм)
S
(см)
18 9.01 З 1 4000 м ясно +15.1 +11.5 79 +16 +16 1013.6 949.6
21 9.01 З 1 4000 м ясно +12.3 +10.5 89 +13 +13 1013.3 948.7
00 10.01 штиль 0 4000 м ясно +10.7 +10.1 96 +10 +10 1014.0 949.0
03 10.01 штиль 0 4000 м мгла ясно +14.0 +11.5 85 +14 +17 1016.0 941.4 +9.4
06 10.01 В 1 4000 м ясно +23.4 +11.5 47 +26 +40 жарко 1013.6 951.2
09 10.01 З 1 10 км ясно +28.6 +7.9 27 +26 +37 жарко 1009.4 948.3
12 10.01 штиль 0 10 км ясно +27.2 +4.7 24 +26 +27 жарко 1009.5 948.2 +29.9
15 10.01 З 1 4000 м ясно +17.8 +5.7 45 +19 +19 1014.0 950.4
18 10.01 штиль 0 4000 м ясно +12.8 +6.9 67 +12 +12 1015.5 950.8
21 10.01 штиль 0 4000 м ясно +10.0 +7.6 85 +9 +9 1015.4 950.0
00 11.01 штиль 0 4000 м ясно +9.0 +7.6 91 +8 +8 1015.5 949.9
03 11.01 штиль 0 4000 м мгла ясно +12.0 +9.4 84 +11 +14 1017.1 952.0 +7.7
06 11.01 В 1 10 км ясно +23.8 +7.9 36 +24 +39 комфорт 1014.5 952.1
09 11.01 ЮЗ 3 10 км ясно +27.8 +3.3 21 +26 +35 жарко 1009.7 948.4
12 11.01 З 1 10 км ясно +26.6 -1.3 16 +24 +25 комфорт 1009.7 948.2 +29.0
15 11.01 штиль 0 4000 м ясно +16.0 +3.7 44 +16 +16 1014.1 950.1
18 11.01 штиль 0 4000 м ясно +16.0 +3.7 44 +16 +16 1014.1 950.1
21 11.01 штиль 0 4000 м ясно +9.8 +6.6 80 +9 +9 1014.2 948.9
00 12.01 штиль 0 4000 м ясно +8.8 +6.8 87 +8 +8 1014.5 949.0
03 12.01 штиль 0 4000 м мгла ясно +11.0 +7.9 81 +10 +13 1016.4 951.1 +7.4
06 12.01 штиль 0 10 км ясно +21.4 +5.3 35 +22 +38 комфорт 1014.3 951.5
09 12.01 СВ 1 10 км ясно +24.8 +6.3 30 +25 +36 комфорт 1009.7 947.8
12 12.01 В 1 10 км ясно +25.0 +9.2 37 +26 +26 жарко 1009.1 947.2 +26.9
15 12.01 штиль 0 4000 м ясно +17.4 +9.4 59 +17 +17 1011.9 948.5
18 12.01 штиль 0 4000 м ясно +14.0 +9.2 73 +14 +14 1014.1 949.6
21 12.01 штиль 0 4000 м ясно +13.0 +10.0 82 +13 +13 1013.0 948.4
00 13.01 штиль 0 4000 м ясно +10.4 +8.5 88 +10 +10 1013.6 948.6
03 13.01 штиль 0 4000 м мгла ясно +11.2 +9.7 90 +11 +13 1016.1 951.0 +9.3
06 13.01 штиль 0 10 км ясно +22.8 +8.4 40 +24 +40 комфорт 1013.7 951.1
09 13.01 ЮВ 1 10 км ясно +26.4 +8.9 33 +27 +38 жарко 1008.8 947.3
12 13.01 В 1 10 км ясно +25.6 +9.6 36 +26 +27 жарко 1008.4 946.8 +27.5
15 13.01 штиль 0 4000 м 4/0 1500 м
[Ac trans]
+19.4 +12.2 63 +21 +21 комфорт 1011.5 948.5
18 13.01 штиль 0 4000 м ясно +16.4 +11.1 71 +16 +16 1013.0 949.2
21 13.01 штиль 0 4000 м ясно +13.8 +10.5 80 +13 +13 1012.9 948.6
00 14.01 штиль 0 4000 м ясно +12.2 +9.2 82 +12 +12 1013.3 948.7
03 14.01 штиль 0 4000 м 9/4 800 м
[Sc Ac trans]
+13.4 +11.2 87 +13 +14 1015.8 951.2 +11.4
06 14.01 В 1 4000 м 4/4 800 м
[Sc]
+23.3 +12.8 52 +26 +35 жарко 1013.9 951.5
09 14.01 З 1 10 км 6/5 800 м
[Sc Ci fib]
+28.4 +13.1 39 +30 +35 жарко 1010.0 948.9
12 14.01 штиль 0 10 км 6/4 800 м
[Sc Ci fib]
+27.6 +13.7 42 +29 +30 жарко 1009.8 948.5 +28.8
15 14.01 штиль 0 4000 м 5/3 800 м
[Sc Ci fib]
+23.0 +14.9 60 +27 +27 душно 1013.7 951.1
18 14.01 штиль 0 4000 м 6/6 800 м
[Sc]
+19.0 +14.7 76 +20 +20 1015.5 952.0
21 14.01 штиль 0 4000 м ясно +17.0 +15.4 90 +17 +17 1015.2 951.3
00 15.01 штиль 0 4000 м ясно +15.0 +13.6 91 +15 +15 1014.8 950.6
03 15.01 штиль 0 4000 м мгла 4/1 800 м
[Sc Ci fib]
+15.6 +13.9 90 +15 +18 1017.4 953.1 +13.9
06 15.01 В 1 4000 м 3/0
[Ci fib]
+25.0 +14.3 51 +27 +41 жарко 1015.6 953.3
09 15.01 В 1 10 км 6/3 800 м
[Sc Ci fib]
+29.0 +13.5 39 +31 +38 жарко 1011.9 950.7
12 15.01 штиль 0 10 км 6/1 800 м
[Sc Ci fib]
+26.8 +16.2 52 +30 +31 душно 1011.8 950.2 +29.4
15 15.01 штиль 0 4000 м 6/4 800 м
[Sc Ci fib]
+22.8 +15.8 65 +27 +27 душно 1014.5 951.9
18 15.01 штиль 0 4000 м 8/4 800 м
[Sc Ci fib]
+22.6 +15.6 65 +27 +27 душно 1014.8 952.2
21 15.01 штиль 0 4000 м 6/4 800 м
[Sc Ci fib]
+18.2 +15.3 83 +18 +18 1015.1 951.6
00 16.01 штиль 0 4000 м 5/1 800 м
[Sc Ci fib]
+16.4 +14.6 89 +16 +16 1015.5 951.6
03 16.01 штиль 0 4000 м мгла 8/3 800 м
[Sc Ci fib]
+17.0 +15.7 92 +17 +19 1017.5 953.4 +15.2
06 16.01 В 1 4000 м мгла {туман} 6/0
[Ci fib]
+25.8 +15.7 54 +29 +42 душно 1015.7 953.6
09 16.01 З 1 10 км 8/5 800 м
[Cu Sc Ci fib]
+28.2 +14.7 44 +31 +36 душно 1011.3 950.1
12 16.01 З 1 10 км 8/5 800 м
[Cu Sc Ci fib]
+27.0 +13.9 45 +29 +29 жарко 1011.6 950.0 +29.2
15 16.01 З 1 4000 м 8/3 800 м
[Sc Ac trans Ci fib]
+23.6 +14.5 57 +26 +26 жарко 1014.3 951.9

 

Местоположение метеостанции Pune (Maharashtra, Индия): широта 18.53 долгота 73.85 высота над уровнем моря 559 м.

В архиве по умолчанию представлена погода в Pune за последнюю неделю. Архивные данные за месяц целиком и за предыдущие месяцы, начиная с января 2011 года, Вы можете получить, выбрав интересующий диапазон дат из раскрывающегося списка и нажав кнопку "Ввод!".

Внимание! Время в таблицах - всемирное. Для получения местного времени необходимо прибавить поправку, которая в Pune равна 5.5 ч.

Ветер - указаны скорость ветра в м/с - средняя за 10 мин, порывы в срок и между сроками (в фигурных скобках) и направление, откуда дует ветер: С - северный, СВ - северо-восточный, В - восточный, ЮВ - юго-восточный, Ю - южный, ЮЗ - юго-западный, З - западный, СЗ - северо-западный.
Видимость - горизонтальная дальность видимости в метрах или километрах. При видимости от 1 до 10 км при отсутствии осадков обычно наблюдается дымка, при ухудшении видимости до 1 км и менее - туман. В сухую погоду видимость может ухудшаться дымом, пылью или мглою.
Явления - указаны атмосферные явления, наблюдавшиеся в срок или в последний час перед сроком; фигурными скобками обозначены явления, наблюдавшиеся между сроками (за 1-3 часа до срока); квадратными скобками обозначены град или гололедные отложения с указанием их диаметра в мм.
Облачность - указаны через наклонную черту общая и нижняя облачность в баллах и высота нижней границы облаков в метрах; квадратными скобками обозначены формы облаков: Ci - перистые, Cs - перисто-слоистые, Cc - перисто-кучевые, Ac - высококучевые, As - высокослоистые, Sc - слоисто-кучевые, Ns - слоисто-дождевые, Cu - кучевые, Cb - кучево-дождевые. Подробнее классификацию облаков см. в Атласе облаков (PDF).
T - Температура воздуха - температура, измеренная на высоте 2 м над землей.
Td - Температура точки росы - температура, при понижении до которой содержащийся в воздухе водяной пар достигнет насыщения.
f - Относительная влажность воздуха - влажноcть воздуха, измеренная на высоте 2 м над землей.
Te - Эффективная температура - температура, которую ощущает одетый по сезону человек в тени. Характеристика душности погоды. При расчете учитывается влияние влажности воздуха и скорости ветра на теплоощущения человека.
Tes - Эффективная температура на солнце - температура, которую ощущает человек, с поправкой на солнечный нагрев. Характеристика знойности погоды. Зависит от высоты солнца над горизонтом, облачности и скорости ветра. Ночью, в пасмурную погоду, а также при ветре 12 м/с и более поправка равна нулю.
P - Атмосферное давление - приведенное к уровню моря атмосферное давление.
Po - Атмосферное давление - измеренное на уровне метеостанции атмосферное давление.
Tmin - Минимальная температура - минимум температуры воздуха на высоте 2 м над землей.
Tmax - Максимальная температура - максимум температуры воздуха на высоте 2 м над землей.
R - Количество осадков - Количество выпавших осадков, мм. При наведении курсора мыши на число - период времени, за который выпало указанное количество осадков.
S - Снежный покров - Высота снежного покрова, см. При наведении курсора мыши на число - состояние снежного покрова и степень покрытия местности в баллах.